Regional Weather Roundup
Issued by NWS

Home | Current Version | Previous Version | Graphics & Text | Print | Product List | Glossary On
Versions: 1 2 3 4 5 6 7 8 9 10 11 12 13 14 15 16 17 18 19 20 21 22 23 24 25 26 27 28 29 30 31 32 33 34 35 36 37 38 39 40 41 42 43 44 45 46 47 48 49 50
535
ASUS44 KJAN 212103
RWRMS

MISSISSIPPI HOURLY WEATHER ROUNDUP
NATIONAL WEATHER SERVICE JACKSON MS
400 PM CDT TUE OCT 21 2014

NOTE: "FAIR: INDICATES FEW OR NO CLOUDS BELOW 12,000 FEET WITH NO
SIGNIFICANT WEATHER AND/OR OBSTRUCTIONS TO VISIBILITY.

MSZ001>002-007>008-010>013-018>021-025>028-034>036-212200-
NORTHWEST MISSISSIPPI

CITY           SKY/WX    TMP DP  RH WIND       PRES   REMARKS
CLARKSDALE     FAIR      75  54  46 N9        30.04S
CLEVELAND      MOCLDY    79  57  46 CALM      30.02S
GREENWOOD      SUNNY     78  53  41 NW3       30.02S
GREENVILLE     MOSUNNY   81  55  40 NE7       30.02S
GRENADA          N/A    N/A N/A N/A MISG        N/A
OLIVE BRANCH   SUNNY     73  46  38 N6        30.04F
OXFORD         FAIR      73  46  38 N8        30.05F
TUNICA         CLEAR     75  45  33 N10       30.05S
$$

MSZ003>006-009-014>017-022>024-029>033-037>039-212200-
NORTHEAST MISSISSIPPI

CITY           SKY/WX    TMP DP  RH WIND       PRES   REMARKS
COLUMBUS AFB   SUNNY     77  54  44 N10       30.01S
CORINTH        FAIR      73  45  35 N8G14     30.03S
GOLDN TRIANGLE PTSUNNY   79  54  41 NW12      30.00F
STARKVILLE     FAIR      75  54  46 NW6       30.01S
TUPELO         SUNNY     76  46  34 NE13      30.02S
$$

MSZ040-058-212200-
CENTRAL MISSISSIPPI

CITY           SKY/WX    TMP DP  RH WIND       PRES   REMARKS
JACKSON INTL   MOSUNNY   79  56  45 N5        30.01F
JACKSON HAWKNS MOSUNNY   78  56  46 NW9       30.02F
MERIDIAN KEY   SUNNY     78  54  43 N8        30.00F
MERIDIAN NAS   SUNNY     79  52  38 N9        30.01S
RAYMOND        FAIR      77  73  88 NE3       30.02F
VICKSBURG      SUNNY     79  58  48 VRB3      30.02F
$$

MSZ059>079-212200-
SOUTH MISSISSIPPI

CITY           SKY/WX    TMP DP  RH WIND       PRES   REMARKS
BROOKHAVEN     FAIR      77  55  47 NW7       30.03S
HATTIESBURG    SUNNY     80  54  40 N8G17     30.00S
MCCOMB         SUNNY     79  53  40 N7        30.00F
NATCHEZ        SUNNY     77  59  53 NW6       30.02S
PINE BELT      SUNNY     79  54  41 N8        30.02F
$$

MSZ080>082-212200-
COASTAL MISSISSIPPI

CITY           SKY/WX    TMP DP  RH WIND       PRES   REMARKS
BAY ST LOUIS   SUNNY     81  48  32 MISG      29.98S
BILOXI         SUNNY     81  53  37 N9        29.97S
PASCAGOULA     SUNNY     82  51  34 N8        29.97S
GULFPORT       SUNNY     82  53  36 VRB5      29.97S
$$



USA.gov is the U.S. government's official web portal to all federal, state and local government web resources and services.